Location: Chateh
(58.6667°N, 118.6000°W)
Time: 19:53:11
(UTC+00:00)

Gurwin Techsat 1B - Pass Details

Date: 06 December 2023
Orbit: 810 x 813 km, 98.9° (Epoch: 21 February)

Event Time Altitude Azimuth Distance (km) Brightness Sun altitude
Rises 12:52:50 0° 16° (NNE) 3,353 12.0 -25.8°
Reaches altitude 10° 12:55:20 10° 9° (N) 2,418 11.1 -25.5°
Enters shadow 12:57:59 26° 348° (NNW) 1,570 9.9 -25.2°
